Location: Newark
(54.2500°N, 9.1833°E)
Time: 12:19:27
(UTC+00:00)

Vanguard 3 - Pass Details

Date: 19 December 2019
Orbit: 507 x 3264 km, 33.4° (Epoch: 28 January)

Event Time Altitude Azimuth Distance (km) Brightness Sun altitude
Rises 06:06:40 0° 215° (SW) 3,216 10.1 -12.4°
Reaches altitude 10° 06:10:29 10° 185° (S) 2,697 10.1 -11.9°
Maximum altitude 06:12:59 12° 162° (SSE) 2,809 10.5 -11.5°
Drops below altitude 10° 06:15:57 10° 140° (SE) 3,334 11.4 -11.1°
Sets 06:22:10 0° 116° (ESE) 5,041 13.6 -10.3°
